GSAT0216 (PRN E25)

Last updated on Sun Jul 21 2024 00:03:08 GMT+0000 (Coordinated Universal Time)

1 43056U 17079B 24201.27401961 .00000083 00000+0 00000+0 0 9990 2 43056 55.3285 240.7146 0004738 269.3665 90.6781 1.70474580 41104

Satellite not in orbit

GSAT0216 (PRN E25)